TimePST,TemperatureF,Dew PointF,Humidity,Sea Level PressureIn,VisibilityMPH,Wind Direction,Wind SpeedMPH,Gust SpeedMPH,PrecipitationIn,Events,Conditions,WindDirDegrees,DateUTC
4:45 AM,32.0,32.0,100,30.27,1.5,WNW,3.5,-,N/A,,Overcast,290,2013-01-25 12:45:00
5:05 AM,32.0,32.0,100,30.27,0.8,West,3.5,-,N/A,,Overcast,260,2013-01-25 13:05:00
5:25 AM,32.0,32.0,100,30.27,2.0,Calm,Calm,-,N/A,,Overcast,0,2013-01-25 13:25:00
5:45 AM,32.0,32.0,100,30.26,0.5,Calm,Calm,-,N/A,,Overcast,0,2013-01-25 13:45:00
6:05 AM,32.0,32.0,100,30.26,2.0,Calm,Calm,-,N/A,,Overcast,0,2013-01-25 14:05:00
6:25 AM,32.0,32.0,100,30.27,4.0,ENE,3.5,-,N/A,,Overcast,70,2013-01-25 14:25:00
6:45 AM,32.0,30.2,93,30.27,0.2,Calm,Calm,-,N/A,,Overcast,0,2013-01-25 14:45:00
7:05 AM,28.4,28.4,100,30.26,0.5,Calm,Calm,-,N/A,,Mostly Cloudy,0,2013-01-25 15:05:00
7:25 AM,30.2,28.4,93,30.26,0.2,Calm,Calm,-,N/A,,Overcast,0,2013-01-25 15:25:00
7:45 AM,30.2,30.2,100,30.25,0.2,Calm,Calm,-,N/A,,Overcast,0,2013-01-25 15:45:00
8:05 AM,32.0,30.2,93,30.25,0.2,Calm,Calm,-,N/A,,Overcast,0,2013-01-25 16:05:00
8:25 AM,32.0,30.2,93,30.25,0.5,Calm,Calm,-,N/A,,Unknown,0,2013-01-25 16:25:00
8:45 AM,32.0,30.2,93,30.25,8.0,SW,4.6,-,N/A,,Clear,220,2013-01-25 16:45:00
9:25 AM,35.6,32.0,87,30.26,10.0,Calm,Calm,-,N/A,,Mostly Cloudy,0,2013-01-25 17:25:00
9:45 AM,35.6,33.8,93,30.27,10.0,East,5.8,-,N/A,,Overcast,100,2013-01-25 17:45:00
10:05 AM,37.4,35.6,93,30.27,10.0,Calm,Calm,-,N/A,,Overcast,0,2013-01-25 18:05:00
10:25 AM,37.4,33.8,87,30.27,10.0,NE,3.5,-,N/A,,Overcast,40,2013-01-25 18:25:00
10:45 AM,37.4,33.8,87,30.26,9.0,North,3.5,-,N/A,,Overcast,360,2013-01-25 18:45:00
11:05 AM,39.2,35.6,87,30.25,10.0,Calm,Calm,-,N/A,,Overcast,0,2013-01-25 19:05:00
11:25 AM,39.2,35.6,87,30.24,10.0,Calm,Calm,-,N/A,,Overcast,0,2013-01-25 19:25:00
11:45 AM,41.0,35.6,81,30.23,10.0,Calm,Calm,-,N/A,,Mostly Cloudy,0,2013-01-25 19:45:00
12:05 PM,39.2,35.6,87,30.22,10.0,ESE,4.6,-,N/A,,Scattered Clouds,120,2013-01-25 20:05:00
12:25 PM,41.0,35.6,81,30.21,10.0,East,4.6,-,N/A,,Scattered Clouds,90,2013-01-25 20:25:00
1:05 PM,44.6,35.6,71,30.18,10.0,Calm,Calm,-,N/A,,Scattered Clouds,0,2013-01-25 21:05:00
1:25 PM,44.6,35.6,71,30.18,10.0,SE,4.6,-,N/A,,Partly Cloudy,130,2013-01-25 21:25:00
1:45 PM,44.6,35.6,71,30.17,10.0,Calm,Calm,-,N/A,,Clear,0,2013-01-25 21:45:00
2:05 PM,46.4,35.6,66,30.17,10.0,ENE,3.5,-,N/A,,Clear,60,2013-01-25 22:05:00
2:25 PM,46.4,35.6,66,30.16,10.0,SSW,5.8,-,N/A,,Clear,210,2013-01-25 22:25:00
2:45 PM,44.6,35.6,71,30.16,10.0,South,9.2,-,N/A,,Clear,170,2013-01-25 22:45:00
3:05 PM,44.6,33.8,66,30.16,10.0,South,8.1,-,N/A,,Clear,170,2013-01-25 23:05:00
3:25 PM,44.6,33.8,66,30.15,10.0,South,9.2,-,N/A,,Clear,170,2013-01-25 23:25:00
3:45 PM,42.8,33.8,70,30.15,10.0,SSE,8.1,-,N/A,,Clear,160,2013-01-25 23:45:00
4:05 PM,41.0,33.8,76,30.14,10.0,South,8.1,-,N/A,,Clear,170,2013-01-26 00:05:00
4:25 PM,41.0,32.0,70,30.14,10.0,South,9.2,-,N/A,,Clear,180,2013-01-26 00:25:00
4:45 PM,39.2,32.0,75,30.14,10.0,South,8.1,-,N/A,,Clear,180,2013-01-26 00:45:00
5:05 PM,37.4,32.0,81,30.14,10.0,South,9.2,-,N/A,,Scattered Clouds,170,2013-01-26 01:05:00
5:25 PM,37.4,32.0,81,30.15,10.0,South,8.1,-,N/A,,Mostly Cloudy,170,2013-01-26 01:25:00
5:45 PM,37.4,32.0,81,30.15,10.0,South,3.5,-,N/A,,Overcast,190,2013-01-26 01:45:00
6:05 PM,35.6,32.0,87,30.15,10.0,South,5.8,-,N/A,,Overcast,180,2013-01-26 02:05:00
6:25 PM,35.6,32.0,87,30.16,10.0,South,5.8,-,N/A,,Overcast,170,2013-01-26 02:25:00
6:45 PM,35.6,32.0,87,30.16,10.0,South,4.6,-,N/A,,Overcast,170,2013-01-26 02:45:00
7:05 PM,35.6,32.0,87,30.16,10.0,South,6.9,-,N/A,,Overcast,180,2013-01-26 03:05:00
7:25 PM,35.6,32.0,87,30.15,10.0,SSW,9.2,-,N/A,,Overcast,200,2013-01-26 03:25:00
7:45 PM,37.4,32.0,81,30.16,10.0,South,9.2,-,N/A,,Overcast,170,2013-01-26 03:45:00
8:05 PM,35.6,32.0,87,30.16,10.0,SSE,12.7,-,N/A,,Overcast,160,2013-01-26 04:05:00
8:25 PM,35.6,32.0,87,30.16,8.0,SSE,6.9,-,N/A,,Overcast,160,2013-01-26 04:25:00
8:45 PM,35.6,32.0,87,30.15,10.0,SSE,5.8,-,N/A,,Overcast,150,2013-01-26 04:45:00
9:05 PM,35.6,32.0,87,30.14,10.0,Calm,Calm,-,N/A,,Overcast,0,2013-01-26 05:05:00
9:25 PM,35.6,32.0,87,30.13,10.0,ESE,4.6,-,N/A,,Overcast,120,2013-01-26 05:25:00
9:45 PM,35.6,32.0,87,30.13,10.0,SE,5.8,-,N/A,,Overcast,130,2013-01-26 05:45:00
10:05 PM,35.6,32.0,87,30.13,10.0,SSE,5.8,-,N/A,,Overcast,160,2013-01-26 06:05:00
10:25 PM,35.6,32.0,87,30.12,10.0,SW,4.6,-,N/A,,Overcast,230,2013-01-26 06:25:00
10:45 PM,35.6,32.0,87,30.12,10.0,SSW,6.9,-,N/A,,Overcast,200,2013-01-26 06:45:00
11:05 PM,35.6,32.0,87,30.12,10.0,SSW,6.9,-,N/A,,Overcast,200,2013-01-26 07:05:00
11:25 PM,35.6,32.0,87,30.12,10.0,SSW,5.8,-,N/A,,Overcast,210,2013-01-26 07:25:00
11:45 PM,35.6,32.0,87,30.13,10.0,SW,8.1,-,N/A,,Overcast,220,2013-01-26 07:45:00